Latest Weather Observations for Keith West

IDS60801

Issued at 6:05 pm CDT Wednesday 22 October 2014 (issued every 30 minutes, with the page automatically refreshed every 10 minutes)

About weather observations | Map of weather stations | Latest weather observations for SA | Other Formats
Station Details ID: 025557 Name: MUNKORA Lat: -36.11 Lon: 140.33 Height: 27.0 m
Data from the previous 72 hours. | See also: Recent months for locations in South Australia
Date/Time
CDT
Temp
°C
App
Temp
°C
Dew
Point
Rel
Hum
%
Delta-T
°C
Wind Press
QNH
hPa
Press
MSL
hPa
Rain
since 9 am
mm
Dir
 
Spd
km/h
Gust
km/h
Spd
kts
Gust
kts
22/06:00pm 26.9 21.9 7.9 30 10.2 SSW 24 35 13 19 1015.0 1015.0 0.0
22/05:30pm 28.2 23.0 9.0 30 10.6 SSW 26 33 14 18 1014.7 1014.7 0.0
22/05:00pm 29.5 24.8 10.6 31 10.8 SW 26 35 14 19 1014.4 1014.4 0.0
22/04:30pm 31.1 26.3 11.5 30 11.4 SW 28 35 15 19 1014.3 1014.3 0.0
22/04:00pm 31.8 27.0 8.7 24 12.9 SW 24 35 13 19 1014.3 1014.3 0.0
22/03:30pm 31.9 26.5 6.2 20 13.8 WSW 24 30 13 16 1014.3 1014.3 0.0
22/03:00pm 31.7 26.3 8.0 23 13.1 WSW 26 35 14 19 1014.7 1014.7 0.0
22/02:30pm 31.7 25.5 8.0 23 13.1 WSW 30 37 16 20 1014.6 1014.6 0.0
22/02:00pm 34.0 28.7 8.6 21 14.3 W 26 41 14 22 1014.4 1014.4 0.0
22/01:30pm 34.8 29.9 5.3 16 15.8 W 20 32 11 17 1014.5 1014.5 0.0
22/01:00pm 34.7 30.8 5.2 16 15.8 W 15 30 8 16 1014.6 1014.6 0.0
22/12:30pm 34.4 30.6 4.0 15 16.0 NW 13 20 7 11 1014.6 1014.6 0.0
22/12:00pm 34.3 29.8 4.0 15 15.9 NW 17 24 9 13 1015.0 1015.0 0.0
22/11:30am 34.0 29.9 4.6 16 15.5 NW 15 22 8 12 1015.4 1015.4 0.0
22/11:00am 33.0 28.8 5.5 18 14.7 WNW 17 35 9 19 1015.9 1015.9 0.0
22/10:30am 33.9 29.1 4.6 16 15.5 NW 19 32 10 17 1016.0 1016.0 0.0
22/10:00am 34.2 29.8 4.8 16 15.6 N 17 24 9 13 1016.1 1016.1 0.0
22/09:30am 32.6 27.0 5.2 18 14.5 NNE 24 35 13 19 1015.8 1015.8 0.0
22/09:00am 31.0 25.6 4.7 19 13.7 N 22 30 12 16 1016.0 1016.0 0.0
22/08:30am 27.8 26.0 5.4 24 11.6 SE 4 7 2 4 1016.0 1016.0 0.0
22/08:00am 26.6 24.4 5.5 26 10.9 N 6 9 3 5 1015.9 1015.9 0.0
22/07:30am 24.6 22.3 5.9 30 9.6 N 7 11 4 6 1015.9 1015.9 0.0
22/07:00am 21.6 18.7 4.7 33 8.3 WNW 9 15 5 8 1015.8 1015.8 0.0
22/06:30am 23.0 19.0 5.0 31 9.0 NNE 15 19 8 10 1015.2 1015.2 0.0
22/06:00am 23.8 19.8 4.7 29 9.5 NE 15 22 8 12 1015.0 1015.0 0.0
22/05:30am 23.3 18.9 4.8 30 9.2 NE 17 20 9 11 1015.0 1015.0 0.0
22/05:00am 22.6 18.7 5.5 33 8.6 NNE 15 22 8 12 1015.3 1015.3 0.0
22/04:30am 20.0 17.7 5.6 39 7.1 NNE 7 17 4 9 1015.8 1015.8 0.0
22/04:00am 22.1 18.8 4.7 32 8.6 NE 11 15 6 8 1015.8 1015.8 0.0
22/03:30am 23.4 18.6 4.9 30 9.2 NE 19 26 10 14 1015.8 1015.8 0.0
22/03:00am 23.4 19.8 4.9 30 9.2 N 13 17 7 9 1016.4 1016.4 0.0
22/02:30am 23.4 20.1 4.4 29 9.4 NW 11 15 6 8 1017.1 1017.1 0.0
22/02:00am 24.8 20.4 4.5 27 10.1 NE 17 24 9 13 1016.7 1016.7 0.0
22/01:30am 24.5 20.1 4.8 28 9.9 NE 17 20 9 11 1017.0 1017.0 0.0
22/01:00am 24.6 20.1 4.4 27 10.1 NE 17 26 9 14 1017.2 1017.2 0.0
22/12:30am 25.1 19.9 3.7 25 10.5 NE 20 28 11 15 1017.5 1017.5 0.0
22/12:00am 25.7 20.1 3.6 24 10.9 ENE 22 33 12 18 1017.5 1017.5 0.0
 
Date/Time
CDT
Temp
°C
App
Temp
°C
Dew
Point
Rel
Hum
%
Delta-T
°C
Wind Press
QNH
hPa
Press
MSL
hPa
Rain
since 9 am
mm
Dir
 
Spd
km/h
Gust
km/h
Spd
kts
Gust
kts
21/11:30pm 25.6 19.9 2.9 23 11.1 ENE 22 32 12 17 1017.6 1017.6 0.0
21/11:00pm 25.7 20.2 1.8 21 11.4 ENE 20 28 11 15 1017.9 1017.9 0.0
21/10:30pm 25.3 20.8 2.1 22 11.1 ENE 15 22 8 12 1017.9 1017.9 0.0
21/10:00pm 24.3 19.8 1.9 23 10.6 E 15 20 8 11 1017.9 1017.9 0.0
21/09:30pm 25.6 21.0 1.7 21 11.4 E 15 19 8 10 1017.9 1017.9 0.0
21/09:00pm 25.0 20.2 0.5 20 11.4 E 15 17 8 9 1017.8 1017.8 0.0
21/08:30pm 25.0 20.7 1.2 21 11.2 E 13 15 7 8 1017.4 1017.4 0.0
21/08:00pm 26.1 21.9 1.4 20 11.8 ENE 13 15 7 8 1017.3 1017.3 0.0
21/07:30pm 26.7 22.4 1.2 19 12.1 ENE 13 15 7 8 1017.3 1017.3 0.0
21/07:00pm 28.5 25.2 0.3 16 13.4 ENE 7 9 4 5 1017.3 1017.3 0.0
21/06:30pm 31.4 28.4 1.7 15 14.7 NE 7 11 4 6 1017.1 1017.1 0.0
21/06:00pm 34.7 31.4 -0.1 11 17.1 NNE 7 11 4 6 1017.0 1017.0 0.0
21/05:30pm 35.2 31.9 0.3 11 17.3 NE 7 13 4 7 1017.1 1017.1 0.0
21/05:00pm 35.2 31.2 0.3 11 17.4 NE 11 19 6 10 1017.3 1017.3 0.0
21/04:30pm 35.3 31.3 0.4 11 17.4 NNE 11 19 6 10 1017.4 1017.4 0.0
21/04:00pm 35.4 31.6 1.7 12 17.2 NNE 11 22 6 12 1017.8 1017.8 0.0
21/03:30pm 35.5 31.7 1.8 12 17.2 NE 11 19 6 10 1018.2 1018.2 0.0
21/03:00pm 35.3 31.1 1.6 12 17.1 NNE 13 20 7 11 1018.7 1018.7 0.0
21/02:30pm 33.9 30.1 1.6 13 16.2 NNE 11 24 6 13 1019.1 1019.1 0.0
21/02:00pm 34.3 30.2 2.0 13 16.4 NNE 13 28 7 15 1019.7 1019.7 0.0
21/01:30pm 32.9 28.7 1.9 14 15.6 NNE 13 26 7 14 1020.3 1020.3 0.0
21/01:00pm 32.4 27.6 2.5 15 15.1 NE 17 30 9 16 1020.8 1020.8 0.0
21/12:30pm 31.2 26.6 1.5 15 14.6 NE 15 20 8 11 1021.3 1021.3 0.0
21/12:00pm 29.9 25.0 2.2 17 13.7 NNE 17 26 9 14 1022.0 1022.0 0.0
21/11:30am 28.9 23.8 3.0 19 12.9 NNE 19 22 10 12 1022.2 1022.2 0.0
21/11:00am 27.4 22.8 3.8 22 11.8 NNE 17 20 9 11 1022.6 1022.6 0.0
21/10:30am 25.6 20.5 2.9 23 11.0 NE 19 24 10 13 1022.9 1022.9 0.0
21/10:00am 24.3 18.3 3.6 26 10.1 NE 24 33 13 18 1023.0 1023.0 0.0
21/09:30am 22.2 18.1 4.3 31 8.7 NE 15 22 8 12 1022.9 1022.9 0.0
21/09:00am 19.6 14.8 4.9 38 7.1 NE 19 26 10 14 1023.3 1023.3 0.0
21/08:30am 17.4 12.8 5.7 46 5.7 ENE 19 28 10 15 1023.3 1023.3 0.0
21/08:00am 15.7 11.2 5.9 52 4.7 ENE 19 26 10 14 1023.0 1023.0 0.0
21/07:30am 14.3 9.7 5.7 56 4.1 ENE 19 26 10 14 1022.7 1022.7 0.0
21/07:00am 13.1 8.4 5.0 58 3.8 ENE 19 28 10 15 1022.7 1022.7 0.0
21/06:30am 12.9 8.9 4.8 58 3.7 ENE 15 22 8 12 1022.3 1022.3 0.0
21/06:00am 12.6 8.6 4.8 59 3.6 ENE 15 24 8 13 1021.8 1021.8 0.0
21/05:30am 12.7 8.7 4.7 58 3.7 ENE 15 22 8 12 1021.5 1021.5 0.0
21/05:00am 13.1 8.3 4.5 56 3.9 ENE 19 24 10 13 1021.6 1021.6 0.0
21/04:30am 13.7 8.8 4.3 53 4.3 ENE 19 26 10 14 1021.6 1021.6 0.0
21/04:00am 13.1 9.3 3.7 53 4.2 E 13 19 7 10 1021.5 1021.5 0.0
21/03:30am 13.2 9.7 3.3 51 4.4 E 11 17 6 9 1021.7 1021.7 0.0
21/03:00am 13.8 9.8 3.0 48 4.8 E 13 19 7 10 1021.9 1021.9 0.0
21/02:30am 13.9 9.9 2.8 47 4.9 E 13 19 7 10 1022.2 1022.2 0.0
21/02:00am 13.7 9.7 2.6 47 4.9 E 13 19 7 10 1022.4 1022.4 0.0
21/01:30am 13.7 9.6 2.3 46 5.0 E 13 15 7 8 1022.8 1022.8 0.0
21/01:00am 14.3 10.6 2.5 45 5.2 E 11 17 6 9 1023.2 1023.2 0.0
21/12:30am 13.1 9.1 2.9 50 4.5 E 13 15 7 8 1023.5 1023.5 0.0
21/12:00am 12.0 8.7 4.5 60 3.4 ESE 11 13 6 7 1023.6 1023.6 0.0
 
Date/Time
CDT
Temp
°C
App
Temp
°C
Dew
Point
Rel
Hum
%
Delta-T
°C
Wind Press
QNH
hPa
Press
MSL
hPa
Rain
since 9 am
mm
Dir
 
Spd
km/h
Gust
km/h
Spd
kts
Gust
kts
20/11:30pm 12.5 9.2 4.7 59 3.6 ESE 11 11 6 6 1023.7 1023.7 0.0
20/11:00pm 13.1 9.9 5.3 59 3.6 ESE 11 13 6 7 1023.6 1023.6 0.0
20/10:30pm 14.0 10.9 5.4 56 4.0 ESE 11 13 6 7 1023.7 1023.7 0.0
20/10:00pm 14.5 11.3 5.3 54 4.3 ESE 11 13 6 7 1023.7 1023.7 0.0
20/09:30pm 16.4 13.7 5.4 48 5.2 ESE 9 11 5 6 1023.8 1023.8 0.0
20/09:00pm 17.7 15.0 5.6 45 5.9 SE 9 9 5 5 1023.5 1023.5 0.0
20/08:30pm 18.4 15.7 5.6 43 6.2 SE 9 9 5 5 1023.3 1023.3 0.0
20/08:00pm 19.6 16.6 6.0 41 6.8 SE 11 13 6 7 1023.0 1023.0 0.0
20/07:30pm 21.8 19.0 5.3 34 8.2 SSE 9 13 5 7 1022.7 1022.7 0.0
20/07:00pm 23.8 21.0 5.2 30 9.4 SE 9 11 5 6 1022.3 1022.3 0.0
20/06:30pm 25.8 22.7 5.4 27 10.4 SE 11 17 6 9 1022.2 1022.2 0.0
20/06:00pm 26.5 23.3 4.9 25 10.9 SE 11 17 6 9 1022.3 1022.3 0.0
20/05:30pm 27.4 23.7 4.5 23 11.6 SE 13 22 7 12 1022.5 1022.5 0.0
20/05:00pm 28.0 23.8 3.7 21 12.2 SE 15 22 8 12 1022.5 1022.5 0.0
20/04:30pm 27.6 23.7 3.3 21 12.1 SE 13 20 7 11 1022.7 1022.7 0.0
20/04:00pm 28.1 24.1 3.0 20 12.5 E 13 24 7 13 1023.0 1023.0 0.0
20/03:30pm 27.0 23.1 3.5 22 11.7 SE 13 20 7 11 1023.3 1023.3 0.0
20/03:00pm 26.7 22.8 3.2 22 11.6 ESE 13 20 7 11 1023.6 1023.6 0.0
20/02:30pm 26.6 22.7 3.2 22 11.5 ESE 13 22 7 12 1023.9 1023.9 0.0
20/02:00pm 25.8 22.0 3.7 24 11.0 ENE 13 24 7 13 1024.5 1024.5 0.0
20/01:30pm 24.8 21.0 4.0 26 10.2 ENE 13 20 7 11 1024.8 1024.8 0.0
20/01:00pm 24.0 19.8 3.9 27 9.9 E 15 22 8 12 1025.5 1025.5 0.0
20/12:30pm 24.0 19.6 4.9 29 9.5 E 17 26 9 14 1025.7 1025.7 0.0
20/12:00pm 22.5 18.8 4.5 31 8.8 ENE 13 20 7 11 1026.2 1026.2 0.0
20/11:30am 20.5 15.6 4.1 34 7.8 E 19 28 10 15 1026.7 1026.7 0.0
20/11:00am 19.5 14.7 4.4 37 7.3 E 19 28 10 15 1027.3 1027.3 0.0
20/10:30am 18.2 13.6 5.4 43 6.2 E 19 32 10 17 1027.7 1027.7 0.0
20/10:00am 16.6 11.8 5.6 48 5.3 ESE 20 28 11 15 1027.8 1027.8 0.0
20/09:30am 15.6 10.6 6.3 54 4.5 ESE 22 30 12 16 1028.1 1028.1 0.0
20/09:00am 14.9 10.3 6.7 58 4.0 E 20 32 11 17 1028.0 1028.0 0.0
20/08:30am 12.9 9.1 7.4 69 2.7 ESE 17 26 9 14 1027.9 1027.9 0.0
20/08:00am 10.9 9.1 7.8 81 1.5 ESE 7 11 4 6 1027.5 1027.5 0.0
20/07:30am 9.2 7.2 7.3 88 0.9 SE 7 9 4 5 1027.4 1027.4 0.0
20/07:00am 7.7 5.7 6.3 91 0.6 SE 6 6 3 3 1027.2 1027.2 0.0
20/06:30am 7.1 4.8 5.9 92 0.5 SSE 7 7 4 4 1026.9 1026.9 0.0
20/06:00am 6.9 4.7 5.5 91 0.6 S 6 7 3 4 1026.6 1026.6 0.0
20/05:30am 7.1 5.0 5.7 91 0.6 S 6 6 3 3 1026.1 1026.1 0.0
20/05:00am 8.2 6.0 6.3 88 0.9 SSE 7 9 4 5 1025.6 1025.6 0.0
20/04:30am 9.3 7.4 7.4 88 0.9 SSE 7 9 4 5 1025.6 1025.6 0.0
20/04:00am 9.3 7.4 7.4 88 0.9 SSE 7 9 4 5 1025.4 1025.4 0.0
20/03:30am 9.8 7.5 7.6 86 1.0 SE 9 11 5 6 1025.3 1025.3 0.0
20/03:00am 10.2 8.0 7.8 85 1.1 SE 9 13 5 7 1025.2 1025.2 0.0
20/02:30am 10.9 7.7 8.3 84 1.3 SE 15 20 8 11 1025.1 1025.1 0.0
20/02:00am 11.0 8.2 8.4 84 1.3 SE 13 19 7 10 1025.3 1025.3 0.0
20/01:30am 10.3 7.8 8.1 86 1.1 SSE 11 15 6 8 1025.4 1025.4 0.0
20/01:00am 10.7 8.2 8.3 85 1.2 SSE 11 13 6 7 1025.6 1025.6 0.0
20/12:30am 10.8 8.8 8.7 87 1.0 SSE 9 11 5 6 1025.4 1025.4 0.0
20/12:00am 10.7 8.5 7.9 83 1.3 SE 9 11 5 6 1025.3 1025.3 0.0
 
Date/Time
CDT
Temp
°C
App
Temp
°C
Dew
Point
Rel
Hum
%
Delta-T
°C
Wind Press
QNH
hPa
Press
MSL
hPa
Rain
since 9 am
mm
Dir
 
Spd
km/h
Gust
km/h
Spd
kts
Gust
kts
19/11:30pm 12.1 9.8 8.9 81 1.6 SSE 11 17 6 9 1025.0 1025.0 0.0
19/11:00pm 12.7 10.1 9.2 79 1.8 SSE 13 19 7 10 1025.0 1025.0 0.0
19/10:30pm 12.8 10.6 9.3 79 1.8 SSE 11 15 6 8 1024.9 1024.9 0.0
19/10:00pm 13.9 10.6 9.7 76 2.2 SSE 17 22 9 12 1024.7 1024.7 0.0
19/09:30pm 14.1 11.2 9.7 75 2.3 SSE 15 20 8 11 1024.6 1024.6 0.0
19/09:00pm 14.7 11.5 10.1 74 2.4 S 17 24 9 13 1024.3 1024.3 0.0
19/08:30pm 15.3 12.5 10.1 71 2.7 S 15 22 8 12 1024.1 1024.1 0.0
19/08:00pm 16.1 13.6 9.8 66 3.3 SSE 13 17 7 9 1023.7 1023.7 0.0
19/07:30pm 17.6 14.9 10.5 63 3.8 SSE 15 22 8 12 1023.2 1023.2 0.0
19/07:00pm 19.3 15.5 11.1 59 4.5 SSE 22 35 12 19 1022.7 1022.7 0.0
19/06:30pm 20.8 16.2 11.2 54 5.3 S 26 37 14 20 1022.2 1022.2 0.0

Other Formats:

Comma delimited format used in spreadsheet applications
http://www.bom.gov.au/fwo/IDS60801/IDS60801.95815.axf

JavaScript Object Notation format (JSON) in row-major order
http://www.bom.gov.au/fwo/IDS60801/IDS60801.95815.json